Back to catalog

FENGYUN 1C DEB

AliveSSO
NORAD 30737·DEBRIS·🇨🇳 China

Launched May 10, 1999 from Taiyuan Satellite Launch Center

Loading…

Next Passes (next 24 hours)

TLE

FreshSource: Space-Track

Epoch: Sep 14, 2026, 10:23 UTC

1 30737U 99025ASX 26257.43293801  .00000337  00000-0  18301-3 0  9996
2 30737  98.6080 236.1642 0024594  59.5349  91.6993 14.18572298  9379

Track FENGYUN 1C DEB in real time with AllMySat

Download on the App Store